Hourly Weather Bolshie Kaybicy

Today, 18 June, Friday

Time Temperature Precipitation Wind Pressure Humidity
00:00 +13°C° 0 mm 3 mps 757 mmHg 79%
01:00 +12°C° 0 mm 3 mps 758 mmHg 80%
02:00 +11°C° 0 mm 3 mps 759 mmHg 81%
03:00 +11°C° 0 mm 3 mps 759 mmHg 81%
04:00 +11°C° 0 mm 3 mps 759 mmHg 78%
05:00 +12°C° 0 mm 3 mps 760 mmHg 75%
06:00 +13°C° 0 mm 3 mps 760 mmHg 73%
07:00 +14°C° 0 mm 4 mps 760 mmHg 68%
08:00 +15°C° 0 mm 4 mps 760 mmHg 63%
09:00 +18°C° 0 mm 4 mps 761 mmHg 59%
10:00 +18°C° 0 mm 4 mps 761 mmHg 55%
11:00 +19°C° 0 mm 4 mps 761 mmHg 52%
12:00 +20°C° 0 mm 5 mps 761 mmHg 49%
13:00 +20°C° 0 mm 4 mps 761 mmHg 48%
14:00 +20°C° 0 mm 4 mps 761 mmHg 48%
15:00 +21°C° 0 mm 3 mps 761 mmHg 47%
16:00 +21°C° 0 mm 3 mps 761 mmHg 51%
17:00 +21°C° 0 mm 2 mps 761 mmHg 56%
18:00 +21°C° 0 mm 1 mps 761 mmHg 60%
19:00 +20°C° 0 mm 1 mps 761 mmHg 62%
20:00 +18°C° 0 mm 1 mps 761 mmHg 63%
21:00 +15°C° 0 mm 1 mps 761 mmHg 65%
22:00 +15°C° 0 mm 1 mps 761 mmHg 67%
23:00 +14°C° 0 mm 2 mps 761 mmHg 68%

Tomorrow, 19 June, Saturday

Time Temperature Precipitation Wind Pressure Humidity
00:00 +13°C° 0 mm 2 mps 761 mmHg 70%
01:00 +13°C° 0 mm 2 mps 761 mmHg 71%
02:00 +13°C° 0 mm 2 mps 761 mmHg 72%
03:00 +13°C° 0 mm 2 mps 761 mmHg 73%
04:00 +13°C° 0 mm 3 mps 761 mmHg 74%
05:00 +14°C° 0 mm 3 mps 761 mmHg 75%
06:00 +16°C° 0 mm 3 mps 761 mmHg 76%
07:00 +18°C° 0 mm 4 mps 761 mmHg 72%
08:00 +19°C° 0 mm 5 mps 761 mmHg 68%
09:00 +21°C° 0 mm 5 mps 761 mmHg 64%
10:00 +22°C° 0 mm 6 mps 760 mmHg 62%
11:00 +23°C° 0 mm 6 mps 760 mmHg 60%
12:00 +24°C° 0 mm 6 mps 759 mmHg 59%
13:00 +26°C° 0 mm 6 mps 759 mmHg 60%
14:00 +26°C° 0 mm 6 mps 759 mmHg 61%
15:00 +27°C° 0 mm 6 mps 758 mmHg 61%
16:00 +26°C° 0 mm 6 mps 758 mmHg 65%
17:00 +26°C° 0 mm 5 mps 758 mmHg 68%
18:00 +25°C° 0 mm 5 mps 758 mmHg 72%
19:00 +23°C° 0 mm 5 mps 758 mmHg 77%
20:00 +21°C° 0 mm 4 mps 757 mmHg 82%
21:00 +20°C° 0 mm 4 mps 757 mmHg 87%
22:00 +19°C° 0 mm 4 mps 757 mmHg 89%
23:00 +19°C° 0 mm 3 mps 757 mmHg 90%

Day after tomorrow, 20 June, Sunday

Time Temperature Precipitation Wind Pressure Humidity
00:00 +18°C° 0 mm 3 mps 757 mmHg 92%
01:00 +18°C° 0 mm 3 mps 758 mmHg 92%
02:00 +17°C° 0 mm 3 mps 758 mmHg 92%
03:00 +17°C° 0 mm 3 mps 758 mmHg 92%
04:00 +18°C° 0 mm 3 mps 758 mmHg 89%
05:00 +19°C° 0 mm 3 mps 758 mmHg 85%
06:00 +20°C° 0 mm 4 mps 758 mmHg 82%
07:00 +22°C° 0 mm 4 mps 758 mmHg 78%
08:00 +23°C° 0 mm 4 mps 758 mmHg 74%
09:00 +26°C° 0 mm 5 mps 758 mmHg 70%
10:00 +27°C° 0 mm 5 mps 758 mmHg 67%
11:00 +28°C° 0 mm 5 mps 758 mmHg 64%
12:00 +29°C° 0 mm 5 mps 758 mmHg 61%
13:00 +29°C° 0 mm 4 mps 758 mmHg 59%
14:00 +30°C° 0 mm 4 mps 757 mmHg 57%
15:00 +30°C° 0 mm 4 mps 757 mmHg 56%
16:00 +29°C° 0 mm 3 mps 757 mmHg 61%
17:00 +29°C° 0 mm 3 mps 757 mmHg 67%
18:00 +28°C° 0 mm 3 mps 757 mmHg 72%
19:00 +27°C° 0 mm 2 mps 757 mmHg 75%
20:00 +25°C° 0 mm 2 mps 757 mmHg 78%
21:00 +24°C° 0 mm 2 mps 758 mmHg 82%
22:00 +24°C° 0 mm 2 mps 758 mmHg 83%
23:00 +23°C° 0 mm 1 mps 758 mmHg 84%

21 June, Monday

Time Temperature Precipitation Wind Pressure Humidity
00:00 +23°C° 0 mm 1 mps 758 mmHg 85%
01:00 +23°C° 0 mm 1 mps 758 mmHg 85%
02:00 +23°C° 0 mm 1 mps 758 mmHg 86%
03:00 +22°C° 0 mm 1 mps 758 mmHg 87%
04:00 +23°C° 0 mm 1 mps 758 mmHg 86%
05:00 +23°C° 0 mm 2 mps 758 mmHg 85%
06:00 +24°C° 0 mm 2 mps 758 mmHg 84%
07:00 +25°C° 0.1 mm 2 mps 758 mmHg 80%
08:00 +26°C° 0.1 mm 2 mps 758 mmHg 75%
09:00 +27°C° 0.1 mm 3 mps 758 mmHg 70%
10:00 +28°C° 0.2 mm 3 mps 758 mmHg 66%
11:00 +29°C° 0.2 mm 3 mps 758 mmHg 62%
12:00 +30°C° 0.2 mm 2 mps 758 mmHg 58%
13:00 +30°C° 0.1 mm 3 mps 758 mmHg 56%
14:00 +31°C° 0.1 mm 3 mps 757 mmHg 54%
15:00 +31°C° 0.1 mm 3 mps 757 mmHg 52%
16:00 +30°C° 0 mm 3 mps 757 mmHg 59%
17:00 +29°C° 0 mm 3 mps 757 mmHg 65%
18:00 +28°C° 0 mm 2 mps 756 mmHg 72%
19:00 +26°C° 0 mm 2 mps 757 mmHg 76%
20:00 +25°C° 0 mm 2 mps 757 mmHg 81%
21:00 +23°C° 0 mm 2 mps 757 mmHg 85%
22:00 +21°C° 0 mm 2 mps 757 mmHg 87%
23:00 +21°C° 0 mm 2 mps 757 mmHg 88%

22 June, Tuesday

Time Temperature Precipitation Wind Pressure Humidity
00:00 +20°C° 0 mm 2 mps 757 mmHg 89%
01:00 +20°C° 0 mm 2 mps 757 mmHg 90%
02:00 +20°C° 0 mm 2 mps 757 mmHg 91%
03:00 +19°C° 0 mm 2 mps 757 mmHg 92%
04:00 +20°C° 0 mm 2 mps 757 mmHg 88%
05:00 +21°C° 0 mm 2 mps 757 mmHg 85%
06:00 +23°C° 0 mm 2 mps 757 mmHg 82%
07:00 +25°C° 0 mm 3 mps 757 mmHg 76%
08:00 +26°C° 0 mm 3 mps 757 mmHg 70%
09:00 +28°C° 0 mm 3 mps 757 mmHg 64%
10:00 +29°C° 0 mm 3 mps 757 mmHg 60%
11:00 +30°C° 0 mm 3 mps 757 mmHg 56%
12:00 +30°C° 0 mm 3 mps 757 mmHg 53%
13:00 +31°C° 0 mm 3 mps 756 mmHg 53%
14:00 +31°C° 0 mm 3 mps 756 mmHg 53%
15:00 +31°C° 0 mm 3 mps 756 mmHg 53%
16:00 +30°C° 0.1 mm 3 mps 756 mmHg 59%
17:00 +30°C° 0.1 mm 2 mps 756 mmHg 64%
18:00 +29°C° 0.1 mm 2 mps 756 mmHg 70%
19:00 +27°C° 0 mm 2 mps 756 mmHg 74%
20:00 +26°C° 0 mm 2 mps 756 mmHg 78%
21:00 +24°C° 0 mm 2 mps 756 mmHg 82%
22:00 +24°C° 0 mm 2 mps 756 mmHg 83%
23:00 +23°C° 0 mm 2 mps 756 mmHg 84%

23 June, Wednesday

Time Temperature Precipitation Wind Pressure Humidity
00:00 +23°C° 0 mm 2 mps 756 mmHg 86%
01:00 +21°C° 0 mm 2 mps 756 mmHg 86%
02:00 +21°C° 0 mm 2 mps 756 mmHg 87%
03:00 +22°C° 0 mm 1 mps 756 mmHg 87%
04:00 +23°C° 0 mm 1 mps 756 mmHg 85%
05:00 +24°C° 0 mm 1 mps 756 mmHg 83%
06:00 +24°C° 0 mm 1 mps 757 mmHg 81%
07:00 +26°C° 0 mm 2 mps 757 mmHg 76%
08:00 +27°C° 0 mm 2 mps 757 mmHg 71%
09:00 +28°C° 0 mm 2 mps 757 mmHg 66%
10:00 +29°C° 0.2 mm 2 mps 757 mmHg 65%
11:00 +29°C° 0.2 mm 2 mps 757 mmHg 63%
12:00 +29°C° 0.2 mm 2 mps 757 mmHg 62%
13:00 +30°C° 0 mm 2 mps 756 mmHg 61%
14:00 +30°C° 0 mm 2 mps 756 mmHg 60%
15:00 +30°C° 0 mm 2 mps 755 mmHg 59%
16:00 +29°C° 0.5 mm 2 mps 756 mmHg 64%
17:00 +27°C° 0.5 mm 2 mps 756 mmHg 70%
18:00 +26°C° 0.5 mm 2 mps 756 mmHg 76%
19:00 +24°C° 0.6 mm 2 mps 756 mmHg 80%
20:00 +21°C° 0.6 mm 2 mps 756 mmHg 84%
21:00 +19°C° 0.6 mm 2 mps 756 mmHg 89%
22:00 +19°C° 0.1 mm 2 mps 756 mmHg 89%
23:00 +19°C° 0.1 mm 2 mps 756 mmHg 90%
Show more